sat.trackr.live / text

‹ back to catalog

STARLINK-33549

NORAD 62289 · 2024-237Y

PAYLOAD ACTIVE UNKNOWN

§ Identity

Operator
Country
US
Launch date
2024-12-08
Launch site
AFETR
Launch vehicle
Mass (kg)
RCS (m²)

Purposes: comms

External: N2YO · Heavens-Above · Gunter

§ Orbital elements

Epoch: 2026-09-21T19:24:31.900320Z

Period
94.27 min
Inclination
42.9980°
Eccentricity
0.0001030
Mean motion
15.27578287 rev/d
Perigee alt
482.3 km
Apogee alt
483.8 km
Semi-major
6,861.2 km
B*
4.3390e-4
RAAN
188.9666°
Arg perigee
267.3251°
Mean anomaly
92.7483°
Rev number
10,118

§ Raw data

STARLINK-335491 62289U 24237Y   26264.80870255  .00011696  00000+0  43390-3 0  99942 62289  42.9980 188.9666 0001030 267.3251  92.7483 15.27578287101181

JSON: /api/v1/satellites/62289 · /tle

For live sub-satellite position, see the globe view (requires WebGL).

§ Visibility from observer

Set your observer location to see the next 7 days of passes ≥ 10°. The values pass through the URL so the page stays shareable.

No JS? Fill the form by hand. The geolocation button needs JavaScript.